{"data":{"norad_id":64324,"intl_designator":"2025-124H","name":"STARLINK-11696 [DTC]","alt_names":[],"object_type":"PAYLOAD","status":"ACTIVE","operator":null,"country":"US","launch_date":"2025-06-10","launch_site_code":"AFETR","launch_vehicle":null,"mission":null,"orbit_class":"UNKNOWN","rcs_meters":null,"size_class":null,"mass_kg":null,"dimensions":null,"purposes":["comms"],"wikipedia_slug":null,"has_3d_model":false,"image_url":null,"decayed_at":null,"tle_current":{"epoch":"2026-05-25T02:17:46.325184Z","epoch_age_seconds":60672,"freshness":"FRESH","line1":"1 64324U 25124H   26145.09567506  .00178760  00000+0  13634-2 0  9996","line2":"2 64324  43.0019 288.4318 0002055 286.5133  73.5509 15.70899364 54855","mean_motion":15.70899364,"eccentricity":0.0002055,"inclination_deg":43.0019,"raan_deg":288.4318,"arg_perigee_deg":286.5133,"mean_anomaly_deg":73.5509,"bstar":0.0013634,"rev_number":5485,"period_min":91.667234260845,"perigee_km":354.94146146784,"apogee_km":357.70932551156,"semimajor_km":6734.4623934897,"source":"CELESTRAK","updated_at":"2026-05-25T13:38:20.394882Z"}}}